| time (UTC) | temp C | wind direction | speed KPH | gust KPH | rain 1hr cm | rain 24hr cm | rain mn cm | humidity % | barometer mb |
| 20260509224425 | 30 | 229 | 1.6 | 1.6 | 0.00 | 0.00 | 0.00 | 71 | 1008.8 |
| 20260509223923 | 30 | 212 | 0.0 | 1.6 | 0.00 | 0.00 | 0.00 | 70 | 1008.9 |
| 20260509223419 | 30 | 211 | 0.0 | 1.6 | 0.00 | 0.00 | 0.00 | 69 | 1008.8 |
| 20260509222916 | 30 | 201 | 0.0 | 1.6 | 0.00 | 0.00 | 0.00 | 67 | 1008.8 |
| 20260509222407 | 31 | 218 | 0.0 | 1.6 | 0.00 | 0.00 | 0.00 | 67 | 1008.8 |
| 20260509221902 | 31 | 231 | 0.0 | 3.2 | 0.00 | 0.00 | 0.00 | 68 | 1008.7 |
| 20260509221359 | 31 | 346 | 4.8 | 4.8 | 0.00 | 0.00 | 0.00 | 66 | 1008.7 |
| 20260509220855 | 31 | 186 | 1.6 | 4.8 | 0.00 | 0.00 | 0.00 | 67 | 1008.8 |
| 20260509220351 | 31 | 262 | 0.0 | 4.8 | 0.00 | 0.00 | 0.00 | 67 | 1008.7 |
| 20260509215847 | 31 | 247 | 1.6 | 3.2 | 0.00 | 0.00 | 0.00 | 65 | 1008.6 |
| 20260509215343 | 31 | 222 | 0.0 | 1.6 | 0.00 | 0.00 | 0.00 | 65 | 1008.7 |
| 20260509214840 | 30 | 242 | 0.0 | 0.0 | 0.00 | 0.00 | 0.00 | 66 | 1008.8 |
| 20260509214337 | 31 | 255 | 1.6 | 1.6 | 0.00 | 0.00 | 0.00 | 67 | 1008.7 |
| 20260509213834 | 31 | 223 | 0.0 | 0.0 | 0.00 | 0.00 | 0.00 | 67 | 1008.7 |
| 20260509213329 | 31 | 223 | 0.0 | 1.6 | 0.00 | 0.00 | 0.00 | 65 | 1008.6 |
| 20260509212827 | 31 | 249 | 1.6 | 6.4 | 0.00 | 0.00 | 0.00 | 67 | 1008.7 |
| 20260509212325 | 31 | 238 | 1.6 | 3.2 | 0.00 | 0.00 | 0.00 | 66 | 1008.8 |
| 20260509211820 | 31 | 227 | 1.6 | 4.8 | 0.00 | 0.00 | 0.00 | 64 | 1008.8 |
| 20260509211317 | 31 | 228 | 3.2 | 4.8 | 0.00 | 0.00 | 0.00 | 64 | 1008.8 |
| 20260509210813 | 31 | 222 | 0.0 | 0.0 | 0.00 | 0.00 | 0.00 | 65 | 1008.8 |
| 20260509210311 | 31 | 231 | 0.0 | 1.6 | 0.00 | 0.00 | 0.00 | 65 | 1009.0 |
| 20260509205810 | 32 | 196 | 3.2 | 3.2 | 0.00 | 0.00 | 0.00 | 62 | 1009.0 |
| 20260509205307 | 32 | 161 | 4.8 | 6.4 | 0.00 | 0.00 | 0.00 | 62 | 1009.0 |
| 20260509204802 | 32 | 213 | 6.4 | 6.4 | 0.00 | 0.00 | 0.00 | 63 | 1009.1 |
| 20260509204258 | 32 | 149 | 1.6 | 6.4 | 0.00 | 0.00 | 0.00 | 65 | 1009.2 |
| 20260509203754 | 31 | 179 | 1.6 | 3.2 | 0.00 | 0.00 | 0.00 | 66 | 1009.3 |
| 20260509203252 | 31 | 277 | 1.6 | 6.4 | 0.00 | 0.00 | 0.00 | 65 | 1009.3 |
| 20260509202748 | 31 | 215 | 0.0 | 0.0 | 0.00 | 0.00 | 0.00 | 65 | 1009.4 |
| 20260509202245 | 31 | 223 | 3.2 | 3.2 | 0.00 | 0.00 | 0.00 | 65 | 1009.6 |
| 20260509201744 | 31 | 196 | 3.2 | 4.8 | 0.00 | 0.00 | 0.00 | 64 | 1009.5 |
| 20260509201241 | 31 | 192 | 4.8 | 11.3 | 0.00 | 0.00 | 0.00 | 68 | 1009.5 |
| 20260509200738 | 32 | 182 | 3.2 | 6.4 | 0.00 | 0.00 | 0.00 | 66 | 1009.4 |
| 20260509200238 | 32 | 227 | 1.6 | 9.7 | 0.00 | 0.00 | 0.00 | 67 | 1009.8 |
| 20260509195734 | 31 | 219 | 3.2 | 9.7 | 0.00 | 0.00 | 0.00 | 66 | 1009.7 |
| 20260509195229 | 32 | 231 | 1.6 | 4.8 | 0.00 | 0.00 | 0.00 | 66 | 1009.7 |
| 20260509194724 | 31 | 240 | 3.2 | 3.2 | 0.00 | 0.00 | 0.00 | 63 | 1009.7 |
| 20260509194221 | 31 | 230 | 1.6 | 3.2 | 0.00 | 0.00 | 0.00 | 64 | 1009.8 |
| 20260509193718 | 31 | 219 | 0.0 | 4.8 | 0.00 | 0.00 | 0.00 | 69 | 1010.0 |
| 20260509193217 | 31 | 229 | 1.6 | 3.2 | 0.00 | 0.00 | 0.00 | 66 | 1010.1 |
| 20260509192714 | 31 | 213 | 0.0 | 6.4 | 0.00 | 0.00 | 0.00 | 70 | 1009.9 |
| 20260509192209 | 31 | 184 | 1.6 | 4.8 | 0.00 | 0.00 | 0.00 | 67 | 1009.7 |
| 20260509191705 | 30 | 247 | 1.6 | 3.2 | 0.00 | 0.00 | 0.00 | 69 | 1010.0 |
| 20260509191201 | 30 | 256 | 1.6 | 4.8 | 0.00 | 0.00 | 0.00 | 70 | 1010.2 |
| 20260509190657 | 31 | 226 | 3.2 | 4.8 | 0.00 | 0.00 | 0.00 | 68 | 1010.2 |
| 20260509190155 | 30 | 179 | 3.2 | 4.8 | 0.00 | 0.00 | 0.00 | 69 | 1010.2 |
| 20260509185653 | 30 | 232 | 1.6 | 3.2 | 0.00 | 0.00 | 0.00 | 70 | 1010.5 |
| 20260509185148 | 31 | 172 | 4.8 | 4.8 | 0.00 | 0.00 | 0.00 | 69 | 1010.4 |
| 20260509184646 | 31 | 220 | 1.6 | 9.7 | 0.00 | 0.00 | 0.00 | 68 | 1010.5 |
| 20260509184143 | 31 | 225 | 1.6 | 4.8 | 0.00 | 0.00 | 0.00 | 70 | 1010.5 |
| 20260509183639 | 31 | 229 | 0.0 | 1.6 | 0.00 | 0.00 | 0.00 | 68 | 1010.6 |
| 20260509183134 | 30 | 223 | 1.6 | 4.8 | 0.00 | 0.00 | 0.00 | 69 | 1010.4 |
| 20260509182631 | 30 | 224 | 0.0 | 3.2 | 0.00 | 0.00 | 0.00 | 73 | 1010.7 |
| 20260509182128 | 28 | 228 | 3.2 | 4.8 | 0.00 | 0.00 | 0.00 | 73 | 1010.9 |
| 20260509181626 | 29 | 228 | 0.0 | 4.8 | 0.00 | 0.00 | 0.00 | 74 | 1010.7 |
| 20260509181124 | 29 | 208 | 0.0 | 1.6 | 0.00 | 0.00 | 0.00 | 73 | 1010.9 |
| 20260509180620 | 29 | 225 | 1.6 | 3.2 | 0.00 | 0.00 | 0.00 | 74 | 1011.0 |
| 20260509180116 | 30 | 235 | 0.0 | 0.0 | 0.00 | 0.00 | 0.00 | 73 | 1011.3 |
| 20260509175612 | 29 | 234 | 0.0 | 1.6 | 0.00 | 0.00 | 0.00 | 73 | 1011.2 |
| 20260509175109 | 30 | 237 | 1.6 | 3.2 | 0.00 | 0.00 | 0.00 | 72 | 1011.2 |
| 20260509174605 | 30 | 250 | 1.6 | 3.2 | 0.00 | 0.00 | 0.00 | 73 | 1011.3 |
| 20260509174100 | 29 | 235 | 1.6 | 4.8 | 0.00 | 0.00 | 0.00 | 75 | 1011.2 |
| 20260509173555 | 29 | 215 | 1.6 | 3.2 | 0.00 | 0.00 | 0.00 | 75 | 1011.4 |
| 20260509173051 | 28 | 229 | 0.0 | 1.6 | 0.00 | 0.00 | 0.00 | 76 | 1011.4 |
| 20260509172549 | 28 | 227 | 0.0 | 1.6 | 0.00 | 0.00 | 0.00 | 78 | 1011.4 |
| 20260509172044 | 28 | 217 | 0.0 | 0.0 | 0.00 | 0.00 | 0.00 | 76 | 1011.4 |
| 20260509171540 | 28 | 274 | 3.2 | 4.8 | 0.00 | 0.00 | 0.00 | 77 | 1011.3 |
| 20260509171037 | 28 | 268 | 1.6 | 1.6 | 0.00 | 0.00 | 0.00 | 77 | 1011.2 |
| 20260509170533 | 29 | 309 | 3.2 | 3.2 | 0.00 | 0.00 | 0.00 | 76 | 1011.4 |
| 20260509170029 | 28 | 227 | 1.6 | 4.8 | 0.00 | 0.00 | 0.00 | 77 | 1011.0 |
| 20260509165527 | 28 | 235 | 0.0 | 3.2 | 0.00 | 0.00 | 0.00 | 78 | 1011.1 |
| 20260509165023 | 29 | 313 | 4.8 | 4.8 | 0.00 | 0.00 | 0.00 | 77 | 1011.2 |
| 20260509164519 | 28 | 205 | 0.0 | 3.2 | 0.00 | 0.00 | 0.00 | 79 | 1011.1 |
| 20260509164016 | 27 | 241 | 1.6 | 3.2 | 0.00 | 0.00 | 0.00 | 81 | 1010.9 |
| 20260509163514 | 27 | 205 | 1.6 | 1.6 | 0.00 | 0.00 | 0.00 | 82 | 1010.9 |
| 20260509163013 | 27 | 160 | 4.8 | 6.4 | 0.00 | 0.00 | 0.00 | 82 | 1010.9 |
| 20260509162512 | 27 | 208 | 0.0 | 3.2 | 0.00 | 0.00 | 0.00 | 83 | 1011.1 |
| 20260509162002 | 27 | 170 | 3.2 | 4.8 | 0.00 | 0.00 | 0.00 | 84 | 1011.2 |
| 20260509161458 | 26 | 186 | 0.0 | 1.6 | 0.00 | 0.00 | 0.00 | 86 | 1011.4 |
| 20260509160954 | 26 | 200 | 0.0 | 3.2 | 0.00 | 0.00 | 0.00 | 88 | 1011.4 |
| 20260509160450 | 26 | 208 | 0.0 | 3.2 | 0.00 | 0.00 | 0.00 | 88 | 1011.3 |
| 20260509155950 | 26 | 189 | 1.6 | 4.8 | 0.00 | 0.00 | 0.00 | 88 | 1011.4 |
| 20260509155447 | 26 | 192 | 1.6 | 3.2 | 0.00 | 0.00 | 0.00 | 88 | 1011.7 |
| 20260509154943 | 25 | 193 | 0.0 | 3.2 | 0.00 | 0.00 | 0.00 | 90 | 1011.7 |
| 20260509154439 | 25 | 222 | 0.0 | 6.4 | 0.00 | 0.00 | 0.00 | 90 | 1011.7 |
| 20260509153937 | 25 | 168 | 3.2 | 4.8 | 0.00 | 0.00 | 0.00 | 90 | 1011.8 |
| 20260509153434 | 25 | 206 | 0.0 | 1.6 | 0.00 | 0.00 | 0.00 | 89 | 1011.9 |
| 20260509152931 | 26 | 207 | 0.0 | 3.2 | 0.00 | 0.00 | 0.00 | 89 | 1011.8 |
| 20260509152427 | 26 | 211 | 0.0 | 1.6 | 0.00 | 0.00 | 0.00 | 89 | 1011.7 |
| 20260509151924 | 25 | 231 | 0.0 | 0.0 | 0.00 | 0.00 | 0.00 | 90 | 1011.8 |
| 20260509151420 | 25 | 185 | 1.6 | 3.2 | 0.00 | 0.00 | 0.00 | 90 | 1011.6 |
| 20260509150918 | 25 | 180 | 1.6 | 4.8 | 0.00 | 0.00 | 0.00 | 91 | 1011.6 |
| 20260509150415 | 25 | 209 | 0.0 | 0.0 | 0.00 | 0.00 | 0.00 | 91 | 1011.5 |
| 20260509145914 | 25 | 216 | 0.0 | 1.6 | 0.00 | 0.00 | 0.00 | 92 | 1011.6 |
| 20260509145413 | 25 | 216 | 0.0 | 1.6 | 0.00 | 0.00 | 0.00 | 92 | 1011.3 |
| 20260509144909 | 25 | 211 | 0.0 | 1.6 | 0.00 | 0.00 | 0.00 | 93 | 1011.6 |
| 20260509144406 | 25 | 193 | 0.0 | 1.6 | 0.00 | 0.00 | 0.00 | 93 | 1011.5 |
| 20260509143903 | 25 | 210 | 0.0 | 0.0 | 0.00 | 0.00 | 0.00 | 94 | 1011.5 |
| 20260509143401 | 25 | 212 | 0.0 | 1.6 | 0.00 | 0.00 | 0.00 | 94 | 1011.3 |
| 20260509142857 | 25 | 211 | 0.0 | 0.0 | 0.00 | 0.00 | 0.00 | 95 | 1011.2 |
| 20260509142353 | 24 | 211 | 0.0 | 0.0 | 0.00 | 0.00 | 0.00 | 95 | 1011.2 |
| 20260509141849 | 24 | 211 | 0.0 | 1.6 | 0.00 | 0.00 | 0.00 | 96 | 1010.9 |
| 20260509141346 | 24 | 212 | 0.0 | 1.6 | 0.00 | 0.00 | 0.00 | 96 | 1010.7 |
| 20260509140842 | 24 | 199 | 0.0 | 1.6 | 0.00 | 0.00 | 0.00 | 96 | 1011.0 |
| 20260509140339 | 23 | 198 | 0.0 | 0.0 | 0.00 | 0.00 | 0.00 | 97 | 1010.9 |
| 20260509135838 | 24 | 216 | 0.0 | 0.0 | 0.00 | 0.00 | 0.00 | 97 | 1011.0 |
| 20260509135335 | 23 | 216 | 0.0 | 0.0 | 0.00 | 0.00 | 0.00 | 97 | 1011.2 |
| 20260509134832 | 23 | 227 | 0.0 | 0.0 | 0.00 | 0.00 | 0.00 | 98 | 1011.3 |
| 20260509134329 | 23 | 227 | 1.6 | 1.6 | 0.00 | 0.00 | 0.00 | 98 | 1011.2 |
| 20260509133826 | 23 | 227 | 1.6 | 1.6 | 0.00 | 0.00 | 0.00 | 98 | 1011.4 |
| 20260509133323 | 23 | 226 | 0.0 | 3.2 | 0.00 | 0.00 | 0.00 | 98 | 1011.6 |
| 20260509132822 | 23 | 186 | 1.6 | 3.2 | 0.00 | 0.00 | 0.00 | 98 | 1011.7 |
| 20260509132320 | 23 | 198 | 0.0 | 1.6 | 0.00 | 0.00 | 0.00 | 99 | 1011.6 |
| 20260509131816 | 23 | 204 | 0.0 | 1.6 | 0.00 | 0.00 | 0.00 | 99 | 1011.5 |
| 20260509131313 | 23 | 198 | 0.0 | 1.6 | 0.00 | 0.00 | 0.00 | 99 | 1011.9 |
| 20260509130809 | 23 | 192 | 0.0 | 1.6 | 0.00 | 0.00 | 0.00 | 99 | 1011.8 |
| 20260509130305 | 23 | 206 | 0.0 | 1.6 | 0.00 | 0.00 | 0.00 | 99 | 1011.8 |
| 20260509125802 | 23 | 223 | 0.0 | 0.0 | 0.00 | 0.00 | 0.00 | 99 | 1011.4 |
| 20260509125258 | 23 | 223 | 0.0 | 0.0 | 0.00 | 0.00 | 0.00 | 99 | 1011.4 |
| 20260509124755 | 23 | 223 | 0.0 | 0.0 | 0.00 | 0.00 | 0.00 | 99 | 1011.5 |
| 20260509124251 | 23 | 223 | 0.0 | 0.0 | 0.00 | 0.00 | 0.00 | 99 | 1011.4 |
| 20260509123750 | 23 | 223 | 0.0 | 0.0 | 0.00 | 0.00 | 0.00 | 99 | 1011.3 |
| 20260509123246 | 22 | 223 | 0.0 | 0.0 | 0.00 | 0.00 | 0.00 | 99 | 1011.5 |
| 20260509122742 | 22 | 223 | 0.0 | 0.0 | 0.00 | 0.00 | 0.00 | 99 | 1011.5 |
| 20260509122239 | 22 | 208 | 0.0 | 0.0 | 0.00 | 0.00 | 0.00 | 99 | 1011.5 |
| 20260509121736 | 22 | 208 | 0.0 | 0.0 | 0.00 | 0.00 | 0.00 | 99 | 1011.4 |
| 20260509121233 | 22 | 208 | 0.0 | 0.0 | 0.00 | 0.00 | 0.00 | 99 | 1011.3 |
| 20260509120731 | 22 | 208 | 0.0 | 1.6 | 0.00 | 0.00 | 0.00 | 99 | 1011.2 |
| 20260509120229 | 22 | 207 | 0.0 | 0.0 | 0.00 | 0.00 | 0.00 | 99 | 1011.1 |
| 20260509115727 | 22 | 208 | 0.0 | 0.0 | 0.00 | 0.00 | 0.00 | 99 | 1010.9 |
| 20260509115224 | 22 | 208 | 0.0 | 0.0 | 0.00 | 0.00 | 0.00 | 99 | 1010.8 |
| 20260509114722 | 22 | 208 | 0.0 | 0.0 | 0.00 | 0.00 | 0.00 | 99 | 1010.9 |
| 20260509114220 | 22 | 208 | 0.0 | 0.0 | 0.00 | 0.00 | 0.00 | 99 | 1011.1 |
| 20260509113719 | 22 | 208 | 0.0 | 0.0 | 0.00 | 0.00 | 0.00 | 99 | 1011.1 |
| 20260509113215 | 22 | 208 | 0.0 | 0.0 | 0.00 | 0.00 | 0.00 | 99 | 1010.9 |
| 20260509112712 | 22 | 209 | 0.0 | 0.0 | 0.00 | 0.00 | 0.00 | 99 | 1011.1 |
| 20260509112209 | 22 | 208 | 0.0 | 0.0 | 0.00 | 0.00 | 0.00 | 99 | 1011.2 |
| 20260509111706 | 22 | 207 | 0.0 | 1.6 | 0.00 | 0.00 | 0.00 | 99 | 1011.0 |
| 20260509111203 | 22 | 193 | 1.6 | 3.2 | 0.00 | 0.00 | 0.00 | 99 | 1010.9 |
| 20260509110700 | 22 | 193 | 0.0 | 3.2 | 0.00 | 0.00 | 0.00 | 99 | 1011.0 |
| 20260509110157 | 22 | 236 | 0.0 | 0.0 | 0.00 | 0.00 | 0.00 | 99 | 1011.4 |
| 20260509105655 | 22 | 236 | 0.0 | 0.0 | 0.00 | 0.00 | 0.00 | 99 | 1011.4 |
| 20260509105152 | 22 | 236 | 0.0 | 0.0 | 0.00 | 0.00 | 0.00 | 99 | 1011.3 |
| 20260509104649 | 22 | 236 | 0.0 | 0.0 | 0.00 | 0.00 | 0.00 | 99 | 1011.2 |
| 20260509104146 | 22 | 236 | 0.0 | 0.0 | 0.00 | 0.00 | 0.00 | 99 | 1011.2 |
| 20260509103644 | 22 | 236 | 0.0 | 0.0 | 0.00 | 0.00 | 0.00 | 99 | 1011.3 |
| 20260509103142 | 22 | 236 | 0.0 | 0.0 | 0.00 | 0.00 | 0.00 | 99 | 1011.2 |
| 20260509102639 | 22 | 236 | 0.0 | 0.0 | 0.00 | 0.00 | 0.00 | 99 | 1011.0 |
| 20260509102136 | 22 | 236 | 0.0 | 0.0 | 0.00 | 0.00 | 0.00 | 99 | 1010.9 |
| 20260509101632 | 22 | 236 | 0.0 | 1.6 | 0.00 | 0.00 | 0.00 | 99 | 1010.9 |
| 20260509101129 | 22 | 236 | 0.0 | 0.0 | 0.00 | 0.00 | 0.00 | 99 | 1010.7 |
| 20260509100626 | 22 | 236 | 0.0 | 0.0 | 0.00 | 0.00 | 0.00 | 99 | 1010.4 |
| 20260509100124 | 22 | 236 | 0.0 | 0.0 | 0.00 | 0.00 | 0.00 | 99 | 1010.4 |
| 20260509095620 | 22 | 236 | 0.0 | 0.0 | 0.00 | 0.00 | 0.00 | 99 | 1010.4 |
| 20260509095117 | 22 | 236 | 0.0 | 0.0 | 0.00 | 0.00 | 0.00 | 99 | 1010.4 |
| 20260509094613 | 22 | 236 | 0.0 | 3.2 | 0.00 | 0.00 | 0.00 | 99 | 1010.3 |
| 20260509094111 | 22 | 218 | 0.0 | 0.0 | 0.00 | 0.00 | 0.00 | 99 | 1010.3 |
| 20260509093609 | 22 | 218 | 0.0 | 0.0 | 0.00 | 0.00 | 0.00 | 99 | 1010.4 |
| 20260509093106 | 22 | 218 | 0.0 | 0.0 | 0.00 | 0.00 | 0.00 | 99 | 1010.6 |
| 20260509092604 | 22 | 218 | 0.0 | 0.0 | 0.00 | 0.00 | 0.00 | 99 | 1010.7 |
| 20260509092102 | 22 | 218 | 0.0 | 0.0 | 0.00 | 0.00 | 0.00 | 99 | 1010.6 |
| 20260509091600 | 22 | 218 | 0.0 | 0.0 | 0.00 | 0.00 | 0.00 | 99 | 1010.6 |
| 20260509091056 | 22 | 218 | 0.0 | 0.0 | 0.00 | 0.00 | 0.00 | 99 | 1010.6 |
| 20260509090553 | 22 | 218 | 0.0 | 0.0 | 0.00 | 0.00 | 0.00 | 99 | 1010.7 |
| 20260509090051 | 22 | 218 | 0.0 | 0.0 | 0.00 | 0.00 | 0.00 | 99 | 1010.7 |
| 20260509085548 | 22 | 218 | 0.0 | 0.0 | 0.00 | 0.00 | 0.00 | 99 | 1010.9 |
| 20260509085044 | 22 | 218 | 0.0 | 0.0 | 0.00 | 0.00 | 0.00 | 99 | 1010.9 |
| 20260509084541 | 22 | 218 | 0.0 | 0.0 | 0.00 | 0.00 | 0.00 | 99 | 1011.1 |
| 20260509084038 | 22 | 218 | 0.0 | 0.0 | 0.00 | 0.00 | 0.00 | 99 | 1011.1 |
| 20260509083536 | 22 | 218 | 0.0 | 0.0 | 0.00 | 0.00 | 0.00 | 99 | 1011.1 |
| 20260509083032 | 22 | 218 | 0.0 | 0.0 | 0.00 | 0.00 | 0.00 | 99 | 1011.1 |
| 20260509082530 | 22 | 218 | 0.0 | 0.0 | 0.00 | 0.00 | 0.00 | 99 | 1011.0 |
| 20260509082027 | 22 | 218 | 0.0 | 0.0 | 0.00 | 0.00 | 0.00 | 99 | 1011.0 |
| 20260509081524 | 22 | 217 | 0.0 | 0.0 | 0.00 | 0.00 | 0.00 | 99 | 1011.1 |
| 20260509081020 | 22 | 217 | 0.0 | 0.0 | 0.00 | 0.00 | 0.00 | 99 | 1011.0 |
| 20260509080519 | 22 | 217 | 0.0 | 0.0 | 0.00 | 0.00 | 0.00 | 99 | 1011.0 |
| 20260509080016 | 22 | 217 | 0.0 | 0.0 | 0.00 | 0.00 | 0.00 | 99 | 1010.8 |
| 20260509075513 | 22 | 217 | 0.0 | 0.0 | 0.00 | 0.00 | 0.00 | 99 | 1010.7 |
| 20260509075011 | 22 | 217 | 0.0 | 0.0 | 0.00 | 0.00 | 0.00 | 99 | 1010.8 |
| 20260509074508 | 22 | 217 | 0.0 | 1.6 | 0.00 | 0.00 | 0.00 | 99 | 1011.0 |
| 20260509074004 | 22 | 209 | 0.0 | 0.0 | 0.00 | 0.00 | 0.00 | 99 | 1010.7 |
| 20260509073501 | 22 | 211 | 0.0 | 1.6 | 0.00 | 0.00 | 0.00 | 99 | 1010.6 |
| 20260509072957 | 22 | 197 | 0.0 | 1.6 | 0.00 | 0.00 | 0.00 | 99 | 1010.7 |
| 20260509072454 | 22 | 198 | 0.0 | 0.0 | 0.00 | 0.00 | 0.00 | 99 | 1010.9 |
| 20260509071951 | 22 | 198 | 0.0 | 0.0 | 0.00 | 0.00 | 0.00 | 99 | 1010.9 |
| 20260509071447 | 22 | 198 | 0.0 | 0.0 | 0.00 | 0.00 | 0.00 | 99 | 1010.8 |
| 20260509070946 | 22 | 198 | 0.0 | 0.0 | 0.00 | 0.00 | 0.00 | 99 | 1010.9 |
| 20260509070442 | 22 | 198 | 0.0 | 0.0 | 0.00 | 0.00 | 0.00 | 99 | 1010.8 |
| 20260509065937 | 22 | 198 | 0.0 | 0.0 | 0.00 | 0.00 | 0.00 | 99 | 1010.8 |
| 20260509065434 | 22 | 198 | 0.0 | 1.6 | 0.00 | 0.00 | 0.00 | 99 | 1010.9 |
| 20260509064930 | 22 | 198 | 0.0 | 1.6 | 0.00 | 0.00 | 0.00 | 99 | 1010.7 |
| 20260509064428 | 22 | 223 | 0.0 | 0.0 | 0.00 | 0.00 | 0.00 | 99 | 1010.9 |
| 20260509063926 | 22 | 223 | 0.0 | 0.0 | 0.00 | 0.00 | 0.00 | 99 | 1010.9 |
| 20260509063421 | 22 | 194 | 0.0 | 0.0 | 0.00 | 0.00 | 0.00 | 99 | 1010.9 |
| 20260509062918 | 22 | 193 | 0.0 | 0.0 | 0.00 | 0.00 | 0.00 | 99 | 1011.0 |
| 20260509062416 | 22 | 194 | 0.0 | 0.0 | 0.00 | 0.00 | 0.00 | 99 | 1010.9 |
| 20260509061913 | 22 | 219 | 0.0 | 1.6 | 0.00 | 0.00 | 0.00 | 99 | 1010.9 |
| 20260509061411 | 22 | 202 | 0.0 | 1.6 | 0.00 | 0.00 | 0.00 | 99 | 1011.1 |
| 20260509060907 | 22 | 211 | 0.0 | 0.0 | 0.00 | 0.00 | 0.00 | 99 | 1011.3 |
| 20260509060405 | 22 | 197 | 0.0 | 0.0 | 0.00 | 0.00 | 0.00 | 99 | 1011.3 |
| 20260509055859 | 22 | 211 | 0.0 | 1.6 | 0.00 | 0.00 | 0.00 | 99 | 1011.3 |
| 20260509055355 | 22 | 197 | 0.0 | 3.2 | 0.00 | 0.00 | 0.00 | 99 | 1011.3 |
| 20260509054853 | 22 | 208 | 0.0 | 0.0 | 0.00 | 0.00 | 0.00 | 99 | 1011.3 |
| 20260509054349 | 22 | 207 | 0.0 | 1.6 | 0.00 | 0.00 | 0.00 | 99 | 1011.4 |
| 20260509053847 | 22 | 215 | 1.6 | 3.2 | 0.00 | 0.00 | 0.00 | 99 | 1011.4 |
| 20260509053344 | 22 | 212 | 0.0 | 1.6 | 0.00 | 0.00 | 0.00 | 99 | 1011.3 |
| 20260509052843 | 22 | 205 | 0.0 | 0.0 | 0.00 | 0.00 | 0.00 | 99 | 1011.3 |
| 20260509052340 | 22 | 208 | 0.0 | 1.6 | 0.00 | 0.00 | 0.00 | 99 | 1011.4 |
| 20260509051838 | 22 | 212 | 0.0 | 1.6 | 0.00 | 0.00 | 0.00 | 99 | 1011.5 |
| 20260509051336 | 22 | 193 | 0.0 | 3.2 | 0.00 | 0.00 | 0.00 | 99 | 1011.3 |
| 20260509050832 | 22 | 193 | 1.6 | 3.2 | 0.00 | 0.00 | 0.00 | 99 | 1011.3 |
| 20260509050329 | 22 | 212 | 0.0 | 1.6 | 0.00 | 0.00 | 0.00 | 99 | 1011.2 |
| 20260509045826 | 22 | 225 | 1.6 | 3.2 | 0.00 | 0.00 | 0.00 | 99 | 1011.3 |
| 20260509045322 | 22 | 199 | 0.0 | 1.6 | 0.00 | 0.00 | 0.00 | 99 | 1011.3 |
| 20260509044820 | 22 | 170 | 1.6 | 3.2 | 0.00 | 0.00 | 0.00 | 99 | 1011.6 |
| 20260509044317 | 22 | 194 | 0.0 | 1.6 | 0.00 | 0.00 | 0.00 | 99 | 1011.4 |
| 20260509043813 | 22 | 216 | 0.0 | 0.0 | 0.00 | 0.00 | 0.00 | 99 | 1011.5 |
| 20260509043309 | 22 | 217 | 1.6 | 3.2 | 0.00 | 0.00 | 0.00 | 99 | 1011.5 |
| 20260509042806 | 22 | 190 | 0.0 | 1.6 | 0.00 | 0.00 | 0.00 | 99 | 1011.3 |
| 20260509042306 | 22 | 209 | 0.0 | 0.0 | 0.00 | 0.00 | 0.00 | 99 | 1011.4 |
| 20260509041759 | 22 | 205 | 0.0 | 3.2 | 0.00 | 0.00 | 0.00 | 99 | 1011.3 |
| 20260509041256 | 22 | 242 | 0.0 | 1.6 | 0.00 | 0.00 | 0.00 | 99 | 1011.3 |
| 20260509040754 | 22 | 194 | 0.0 | 3.2 | 0.00 | 0.00 | 0.00 | 99 | 1011.4 |
| 20260509040251 | 22 | 191 | 0.0 | 0.0 | 0.00 | 0.00 | 0.00 | 99 | 1011.3 |
| 20260509035748 | 22 | 195 | 0.0 | 1.6 | 0.00 | 0.00 | 0.00 | 99 | 1011.2 |
| 20260509035245 | 22 | 195 | 0.0 | 0.0 | 0.00 | 0.00 | 0.00 | 99 | 1011.2 |
| 20260509034742 | 22 | 206 | 1.6 | 1.6 | 0.00 | 0.00 | 0.00 | 99 | 1010.9 |
| 20260509034239 | 22 | 164 | 3.2 | 3.2 | 0.00 | 0.00 | 0.00 | 99 | 1011.1 |
| 20260509033736 | 22 | 215 | 0.0 | 1.6 | 0.00 | 0.00 | 0.00 | 98 | 1011.0 |
| 20260509033233 | 22 | 197 | 0.0 | 3.2 | 0.00 | 0.00 | 0.00 | 98 | 1011.0 |
| 20260509032730 | 22 | 227 | 1.6 | 1.6 | 0.00 | 0.00 | 0.00 | 98 | 1011.0 |
| 20260509032227 | 22 | 221 | 0.0 | 0.0 | 0.00 | 0.00 | 0.00 | 98 | 1011.1 |
| 20260509031725 | 22 | 217 | 0.0 | 0.0 | 0.00 | 0.00 | 0.00 | 98 | 1010.9 |
| 20260509031222 | 22 | 198 | 0.0 | 1.6 | 0.00 | 0.00 | 0.00 | 98 | 1011.0 |
| 20260509030720 | 22 | 230 | 0.0 | 3.2 | 0.00 | 0.00 | 0.00 | 98 | 1011.1 |
| 20260509030217 | 22 | 232 | 0.0 | 4.8 | 0.00 | 0.00 | 0.00 | 98 | 1010.9 |
| 20260509025713 | 22 | 248 | 3.2 | 6.4 | 0.00 | 0.00 | 0.00 | 98 | 1010.9 |
| 20260509025209 | 22 | 229 | 0.0 | 0.0 | 0.00 | 0.00 | 0.00 | 98 | 1010.7 |
| 20260509024705 | 22 | 218 | 1.6 | 3.2 | 0.00 | 0.00 | 0.00 | 98 | 1010.5 |
| 20260509024201 | 22 | 232 | 0.0 | 1.6 | 0.00 | 0.00 | 0.00 | 98 | 1010.5 |
| 20260509023659 | 22 | 224 | 0.0 | 3.2 | 0.00 | 0.00 | 0.00 | 98 | 1010.4 |
| 20260509023156 | 22 | 213 | 0.0 | 1.6 | 0.00 | 0.00 | 0.00 | 98 | 1010.5 |
| 20260509022651 | 22 | 225 | 0.0 | 0.0 | 0.00 | 0.00 | 0.00 | 98 | 1010.6 |
| 20260509022150 | 22 | 247 | 0.0 | 1.6 | 0.00 | 0.00 | 0.00 | 98 | 1010.5 |
| 20260509021646 | 22 | 203 | 1.6 | 3.2 | 0.00 | 0.00 | 0.00 | 98 | 1010.4 |
| 20260509021143 | 22 | 235 | 1.6 | 3.2 | 0.00 | 0.00 | 0.00 | 97 | 1010.4 |
| 20260509020642 | 22 | 236 | 0.0 | 1.6 | 0.00 | 0.00 | 0.00 | 97 | 1010.4 |
| 20260509020138 | 22 | 194 | 3.2 | 4.8 | 0.00 | 0.00 | 0.00 | 97 | 1010.3 |
| 20260509015637 | 22 | 213 | 0.0 | 1.6 | 0.00 | 0.00 | 0.00 | 97 | 1010.5 |
| 20260509015134 | 22 | 235 | 0.0 | 1.6 | 0.00 | 0.00 | 0.00 | 97 | 1010.4 |
| 20260509014630 | 22 | 208 | 0.0 | 1.6 | 0.00 | 0.00 | 0.00 | 96 | 1010.4 |
| 20260509014127 | 22 | 157 | 1.6 | 3.2 | 0.00 | 0.00 | 0.00 | 96 | 1010.2 |
| 20260509013624 | 22 | 239 | 1.6 | 1.6 | 0.00 | 0.00 | 0.00 | 96 | 1010.4 |
| 20260509013119 | 22 | 245 | 1.6 | 3.2 | 0.00 | 0.00 | 0.00 | 96 | 1010.6 |
| 20260509012617 | 22 | 208 | 1.6 | 3.2 | 0.00 | 0.00 | 0.00 | 95 | 1010.6 |
| 20260509012113 | 22 | 238 | 1.6 | 1.6 | 0.00 | 0.00 | 0.00 | 95 | 1010.5 |
| 20260509011612 | 22 | 215 | 1.6 | 6.4 | 0.00 | 0.00 | 0.00 | 95 | 1010.2 |
| 20260509011108 | 22 | 216 | 1.6 | 3.2 | 0.00 | 0.00 | 0.00 | 95 | 1010.3 |
| 20260509010606 | 23 | 207 | 0.0 | 1.6 | 0.00 | 0.00 | 0.00 | 94 | 1010.1 |
| 20260509005600 | 23 | 238 | 0.0 | 3.2 | 0.00 | 0.00 | 0.00 | 94 | 1010.1 |
| 20260509005055 | 23 | 232 | 1.6 | 3.2 | 0.00 | 0.00 | 0.00 | 93 | 1009.9 |
| 20260509004552 | 23 | 221 | 1.6 | 3.2 | 0.00 | 0.00 | 0.00 | 93 | 1009.8 |
| 20260509004049 | 23 | 221 | 1.6 | 4.8 | 0.00 | 0.00 | 0.00 | 93 | 1009.9 |
| 20260509003548 | 23 | 231 | 1.6 | 3.2 | 0.00 | 0.00 | 0.00 | 93 | 1009.8 |
| 20260509003044 | 23 | 220 | 1.6 | 3.2 | 0.00 | 0.00 | 0.00 | 92 | 1009.6 |
| 20260509002542 | 23 | 218 | 3.2 | 6.4 | 0.00 | 0.00 | 0.00 | 92 | 1010.0 |
| 20260509002039 | 23 | 235 | 1.6 | 3.2 | 0.00 | 0.00 | 0.00 | 91 | 1010.1 |
| 20260509001537 | 23 | 69 | 3.2 | 4.8 | 0.00 | 0.00 | 0.00 | 91 | 1010.2 |
| 20260509001032 | 23 | 218 | 3.2 | 4.8 | 0.00 | 0.00 | 0.00 | 90 | 1010.2 |
| 20260509000531 | 23 | 227 | 1.6 | 3.2 | 0.00 | 0.00 | 0.00 | 90 | 1010.2 |
| 20260509000026 | 24 | 34 | 1.6 | 3.2 | 0.00 | 0.00 | 0.00 | 89 | 1010.1 |
| 20260508235525 | 24 | 238 | 0.0 | 3.2 | 0.00 | 0.00 | 0.00 | 89 | 1010.2 |
| 20260508235020 | 24 | 219 | 1.6 | 6.4 | 0.00 | 0.00 | 0.00 | 89 | 1010.2 |
| 20260508234518 | 24 | 251 | 1.6 | 3.2 | 0.00 | 0.00 | 0.00 | 89 | 1010.3 |
| 20260508234015 | 24 | 83 | 3.2 | 6.4 | 0.00 | 0.00 | 0.00 | 88 | 1010.2 |
| 20260508233515 | 24 | 221 | 1.6 | 3.2 | 0.00 | 0.00 | 0.00 | 88 | 1010.4 |
| 20260508233011 | 24 | 292 | 1.6 | 3.2 | 0.00 | 0.00 | 0.00 | 88 | 1010.2 |
| 20260508232508 | 25 | 205 | 4.8 | 9.7 | 0.00 | 0.00 | 0.00 | 87 | 1010.4 |
| 20260508232005 | 25 | 189 | 1.6 | 3.2 | 0.00 | 0.00 | 0.00 | 86 | 1010.2 |
| 20260508231503 | 25 | 195 | 1.6 | 3.2 | 0.00 | 0.00 | 0.00 | 87 | 1010.1 |
| 20260508230959 | 25 | 147 | 3.2 | 6.4 | 0.00 | 0.00 | 0.00 | 86 | 1010.2 |
| 20260508230456 | 25 | 135 | 3.2 | 3.2 | 0.00 | 0.00 | 0.00 | 86 | 1010.1 |
| 20260508225953 | 25 | 220 | 1.6 | 1.6 | 0.00 | 0.00 | 0.00 | 85 | 1010.3 |
| 20260508225450 | 25 | 168 | 0.0 | 3.2 | 0.00 | 0.00 | 0.00 | 85 | 1010.1 |
| 20260508224947 | 25 | 225 | 3.2 | 3.2 | 0.00 | 0.00 | 0.00 | 84 | 1010.0 |